Weather History for Murray, KY

Change the Weather History Date:

Thursday, April 11, 2013

  Actual Average (KPAH) Record (KPAH)
Temperature  
Mean Temperature 58 °F 56 °F  
Max Temperature 71 °F 68 °F 87 °F (2001)
Min Temperature 44 °F 45 °F 25 °F (1989)
Degree Days  
Heating Degree Days 8 9  
Month to date heating degree days 118  
Since 1 July heating degree days 3937  
Cooling Degree Days 0 1  
Month to date cooling degree days 11  
Year to date cooling degree days 18  
Growing Degree Days 8 (Base 50)    
Moisture  
Dew Point 56 °F    
Average Humidity 97    
Maximum Humidity 100    
Minimum Humidity 69    
Precipitation  
Precipitation 2.35 in 0.14 in 2.67 in (1944)
Month to date precipitation 1.59  
Year to date precipitation 13.11  
Snow  
Snow 0.00 in 0.00 in T in (1990)
Month to date snowfall 0.0  
Since 1 July snowfall 9.1  
Snow Depth -    
Sea Level Pressure  
Sea Level Pressure 29.71 in    
Wind  
Wind Speed 8 mph (WSW)    
Max Wind Speed 16 mph    
Max Gust Speed 21 mph    
Visibility 6 miles    
Events      
T = Trace of Precipitation, MM = Missing Value Source: NWS Daily Summary

Daily Weather History Graph

Daily Weather History Graph

Search for Another Location

Airport:

Trip Planner

Search our weather history database for the weather conditions in past years. The results will help you decide how hot, cold, wet, or windy it might be!

Date:

Astronomy

Apr. 11, 2013 Rise Set
Actual Time 6:24 AM CDT 7:24 PM CDT
Civil Twilight 5:58 AM CDT 7:51 PM CDT
Nautical Twilight 5:26 AM CDT 8:22 PM CDT
Astronomical Twilight 4:54 AM CDT 8:55 PM CDT
Moon 6:58 AM CDT (4/11) 8:55 PM CDT (4/11)
Length of Visible Light 13h 52m
Length of Day
12h 59m
New Moon, 2% of the Moon is Illuminated
Apr 11
New Moon
Apr 18
First Quarter
Apr 25
Full
May 2
Last Quarter
May 9
New

Hourly Weather History & Observations

Time (CDT) Temp. Windchill Dew Point Humidity Pressure Visibility Wind Dir Wind Speed Gust Speed Precip Events Conditions
12:15 AM 71.6 °F - 60.8 °F 69% 29.73 in 10.0 mi SSW 6.9 mph - 0.01 in   Unknown
12:35 AM 71.6 °F - 60.8 °F 69% 29.75 in 10.0 mi SW 5.8 mph - 0.01 in   Overcast
12:55 AM 68.0 °F - 62.6 °F 83% 29.75 in 8.0 mi NW 8.1 mph - 0.04 in   Overcast
1:15 AM 66.2 °F - 64.4 °F 94% 29.75 in 9.0 mi NNW 10.4 mph - 0.01 in   Overcast
1:35 AM 64.4 °F - 64.4 °F 100% 29.74 in 9.0 mi NNW 10.4 mph - 0.02 in   Overcast
1:55 AM 64.4 °F - 64.4 °F 100% 29.73 in 4.0 mi North 8.1 mph - 0.11 in   Unknown
2:15 AM 64.4 °F - 64.4 °F 100% 29.73 in 4.0 mi NNW 10.4 mph - 0.04 in   Unknown
2:35 AM 62.6 °F - 62.6 °F 100% 29.73 in 1.8 mi NNW 4.6 mph - 0.16 in   Overcast
2:55 AM 62.6 °F - 62.6 °F 100% 29.73 in 3.0 mi SE 4.6 mph - 0.29 in   Unknown
3:15 AM 62.6 °F - 62.6 °F 100% 29.74 in 1.2 mi SSE 4.6 mph - 0.17 in   Unknown
3:35 AM 62.6 °F - 62.6 °F 100% 29.74 in 4.0 mi SSW 3.5 mph - 0.24 in   Unknown
3:55 AM 64.4 °F - 64.4 °F 100% 29.75 in 3.0 mi South 9.2 mph - 0.33 in   Unknown
4:15 AM 64.4 °F - 64.4 °F 100% 29.73 in 6.0 mi South 4.6 mph - 0.03 in   Unknown
4:35 AM 62.6 °F - 62.6 °F 100% 29.74 in 5.0 mi South 8.1 mph - 0.08 in   Unknown
4:55 AM 62.6 °F - 62.6 °F 100% 29.73 in 3.0 mi South 5.8 mph - 0.16 in   Unknown
5:15 AM 62.6 °F - 62.6 °F 100% 29.72 in 5.0 mi South 10.4 mph - 0.04 in   Unknown
5:35 AM 62.6 °F - 62.6 °F 100% 29.73 in 5.0 mi SSW 10.4 mph 16.1 mph 0.10 in   Mostly Cloudy
5:55 AM 62.6 °F - 62.6 °F 100% 29.72 in 4.0 mi South 9.2 mph 16.1 mph 0.16 in   Overcast
6:15 AM 62.6 °F - 62.6 °F 100% 29.71 in 5.0 mi South 10.4 mph 16.1 mph 0.04 in   Overcast
6:35 AM 62.6 °F - 62.6 °F 100% 29.73 in 6.0 mi SSE 11.5 mph 17.3 mph 0.06 in   Overcast
6:55 AM 62.6 °F - 62.6 °F 100% 29.72 in 5.0 mi SSE 9.2 mph - 0.10 in   Mostly Cloudy
7:15 AM 62.6 °F - 62.6 °F 100% 29.71 in 3.0 mi SSE 8.1 mph - 0.06 in   Overcast
7:35 AM 62.6 °F - 62.6 °F 100% 29.72 in 2.5 mi South 11.5 mph - 0.11 in   Overcast
7:55 AM 62.6 °F - 62.6 °F 100% 29.71 in 3.0 mi SSE 9.2 mph - 0.21 in   Overcast
8:15 AM 62.6 °F - 62.6 °F 100% 29.71 in 4.0 mi South 11.5 mph 19.6 mph 0.05 in   Overcast
8:35 AM 62.6 °F - 62.6 °F 100% 29.71 in 4.0 mi South 9.2 mph 18.4 mph 0.11 in   Overcast
8:55 AM 62.6 °F - 62.6 °F 100% 29.72 in 5.0 mi South 11.5 mph - 0.15 in   Overcast
9:15 AM 62.6 °F - 62.6 °F 100% 29.74 in 3.0 mi South 9.2 mph - 0.05 in   Overcast
9:35 AM 62.6 °F - 62.6 °F 100% 29.74 in 1.5 mi South 3.5 mph - 0.16 in   Overcast
9:55 AM 62.6 °F - 60.8 °F 94% 29.75 in 2.5 mi West 10.4 mph - 0.25 in   Overcast
10:15 AM 59.0 °F - 59.0 °F 100% 29.75 in 4.0 mi WNW 8.1 mph - 0.04 in   Overcast
10:35 AM 57.2 °F - 57.2 °F 100% 29.75 in 3.0 mi West 5.8 mph - 0.08 in   Overcast
10:55 AM 57.2 °F - 57.2 °F 100% 29.73 in 3.0 mi West 5.8 mph - 0.14 in   Overcast
11:15 AM 57.2 °F - 57.2 °F 100% 29.70 in 5.0 mi Calm Calm - 0.02 in   Mostly Cloudy
11:35 AM 57.2 °F - 57.2 °F 100% 29.73 in 3.0 mi South 3.5 mph - 0.06 in   Mostly Cloudy
12:15 PM 57.2 °F - 57.2 °F 100% 29.71 in 4.0 mi SSW 3.5 mph - 0.03 in   Mostly Cloudy
12:35 PM 59.0 °F - 59.0 °F 100% 29.71 in 5.0 mi West 6.9 mph - 0.05 in   Scattered Clouds
12:55 PM 57.2 °F - 57.2 °F 100% 29.71 in 7.0 mi West 10.4 mph - 0.07 in   Mostly Cloudy
1:15 PM 57.2 °F - 57.2 °F 100% 29.73 in 5.0 mi West 15.0 mph 19.6 mph 0.02 in   Overcast
1:35 PM 55.4 °F - 55.4 °F 100% 29.71 in 2.5 mi SW 5.8 mph - 0.08 in   Overcast
1:55 PM 55.4 °F - 55.4 °F 100% 29.70 in 3.0 mi West 8.1 mph - 0.15 in   Overcast
2:15 PM 53.6 °F - 53.6 °F 100% 29.69 in 5.0 mi West 5.8 mph - 0.02 in   Overcast
2:35 PM 53.6 °F - 53.6 °F 100% 29.68 in 5.0 mi WSW 4.6 mph - 0.04 in   Mostly Cloudy
2:55 PM 53.6 °F - 53.6 °F 100% 29.67 in 4.0 mi WSW 5.8 mph - 0.08 in   Overcast
3:15 PM 53.6 °F - 53.6 °F 100% 29.65 in 5.0 mi Calm Calm - 0.02 in   Mostly Cloudy
3:35 PM 53.6 °F - 53.6 °F 100% 29.63 in 6.0 mi WNW 8.1 mph - 0.05 in   Overcast
4:15 PM 50.0 °F - 50.0 °F 100% 29.67 in 10.0 mi WNW 16.1 mph 20.7 mph N/A   Overcast
4:35 PM 50.0 °F - 50.0 °F 100% 29.65 in 10.0 mi WNW 12.7 mph 18.4 mph N/A   Overcast
4:55 PM 50.0 °F - 50.0 °F 100% 29.67 in 3.0 mi West 9.2 mph - N/A   Overcast
5:15 PM 48.2 °F - 48.2 °F 100% 29.66 in 2.0 mi West 8.1 mph - N/A   Overcast
5:35 PM 48.2 °F - 48.2 °F 100% 29.63 in 9.0 mi Calm Calm - N/A   Overcast
5:55 PM 50.0 °F - 50.0 °F 100% 29.68 in 8.0 mi West 9.2 mph - N/A   Overcast
6:15 PM 48.2 °F - 48.2 °F 100% 29.67 in 7.0 mi West 9.2 mph 18.4 mph N/A   Overcast
6:35 PM 48.2 °F - 48.2 °F 100% 29.66 in 10.0 mi West 13.8 mph 18.4 mph N/A   Overcast
6:55 PM 48.2 °F - 48.2 °F 100% 29.65 in 10.0 mi West 9.2 mph - N/A   Overcast
7:15 PM 48.2 °F - 48.2 °F 100% 29.67 in 10.0 mi West 12.7 mph 17.3 mph N/A   Overcast
7:35 PM 48.2 °F - 48.2 °F 100% 29.67 in 10.0 mi West 10.4 mph 16.1 mph N/A   Overcast
7:55 PM 48.2 °F - 48.2 °F 100% 29.68 in 10.0 mi West 12.7 mph - N/A   Overcast
8:15 PM 48.2 °F - 46.4 °F 93% 29.69 in 10.0 mi West 11.5 mph - N/A   Overcast
8:35 PM 48.2 °F - 46.4 °F 93% 29.70 in 10.0 mi West 9.2 mph - N/A   Overcast
8:55 PM 48.2 °F - 46.4 °F 93% 29.70 in 10.0 mi West 9.2 mph - N/A   Overcast
9:15 PM 48.2 °F - 46.4 °F 93% 29.70 in 10.0 mi WNW 10.4 mph 17.3 mph N/A   Overcast
9:35 PM 48.2 °F - 44.6 °F 87% 29.71 in 10.0 mi West 10.4 mph 16.1 mph N/A   Overcast
9:55 PM 48.2 °F - 44.6 °F 87% 29.71 in 10.0 mi West 10.4 mph - N/A   Overcast
10:15 PM 46.4 °F 41.5 °F 44.6 °F 93% 29.72 in 10.0 mi West 10.4 mph - N/A   Overcast
10:35 PM 46.4 °F 41.5 °F 44.6 °F 93% 29.73 in 10.0 mi West 10.4 mph - N/A   Mostly Cloudy
10:55 PM 46.4 °F 41.5 °F 44.6 °F 93% 29.74 in 10.0 mi West 10.4 mph 16.1 mph N/A   Overcast
11:15 PM 46.4 °F 41.5 °F 44.6 °F 93% 29.74 in 10.0 mi West 10.4 mph - N/A   Overcast
11:35 PM 44.6 °F 39.2 °F 42.8 °F 93% 29.74 in 10.0 mi West 10.4 mph - N/A   Mostly Cloudy
11:55 PM 44.6 °F 39.7 °F 42.8 °F 93% 29.75 in 10.0 mi WNW 9.2 mph - N/A   Scattered Clouds